Regional Weather Roundup
Issued by NWS Newport/Morehead, NC

Current Version | Previous Version | Graphics & Text | Print | Product List | Glossary Off
Versions: 1 2 3 4 5 6 7 8 9 10 11 12 13 14 15 16 17 18 19 20 21 22 23 24 25 26 27 28 29 30 31 32 33 34 35 36 37 38 39 40 41 42 43 44 45 46 47 48 49 50

902
ASUS42 KMHX 121125
RWRMHX
WEATHER ROUNDUP FOR EASTERN NORTH CAROLINA
NATIONAL WEATHER SERVICE NEWPORT/MOREHEAD CITY NC
600 AM EST FRI FEB 12 2016

NOTE: "FAIR" INDICATES FEW OR NO CLOUDS BELOW 12,000 FEET
WITH NO SIGNIFICANT WEATHER AND/OR OBSTRUCTIONS TO VISIBILITY

NCZ015>017-031-032-045>047-102-103-121200-
NORTH COAST

CITY           SKY/WX    TMP DP  RH WIND       PRES   REMARKS
EDENTON        MOCLDY    27  16  63 NE6       30.32S
ELIZABETH CITY CLEAR     27  16  63 N12       30.32F WCI  17
KITTY HAWK     CLOUDY    32  18  57 CALM      30.28F
MANTEO         MOCLDY    32  20  62 NE12      30.29F

$$

NCZ045>047-081-094-103-104-121200-
CENTRAL COAST

CITY           SKY/WX    TMP DP  RH WIND       PRES   REMARKS
FRISCO         CLEAR     34  16  47 NE6       30.29R
SWANQUARTER      N/A     30 N/A N/A N6        30.27S

$$

NCZ095-097-098-100-101-121200-
SOUTHERN COAST

CITY           SKY/WX    TMP DP  RH WIND       PRES   REMARKS
BEAUFORT       CLOUDY    32  17  54 NE6       30.28R
CEDAR ISLAND     N/A     36 N/A N/A N8G21     30.33S
JACKSONVILLE   CLOUDY    31  14  49 NE8       30.27S
PINEY ISLAND   MOSUNNY  N/A N/A N/A NE12      30.28S
WILMINGTON     CLOUDY    35  18  49 NE12      30.25R


$$

NCZ011>013-027>030-043-044-078>080-089-090>093-098-121200-
COASTAL PLAIN

CITY           SKY/WX    TMP DP  RH WIND       PRES   REMARKS
AHOSKIE        CLOUDY    23   9  53 N6        30.32F
CLINTON        CLOUDY    30  12  47 E5        30.26F
ELIZABETHTOWN  CLOUDY    30  13  49 E5        30.25S
GOLDSBORO      CLOUDY    28  10  47 NE9       30.26S
GREENVILLE     CLOUDY    28  14  54 NE6       30.31S
HAVELOCK       CLOUDY    32  17  54 NE12      30.29R
KENANSVILLE    PTCLDY    28  14  54 CALM      30.28S
KINSTON        NOT AVBL
NEW BERN       CLOUDY    29  16  58 NE7       30.30S
RICHLANDS      PTCLDY    27  14  59 NE8       30.28R
ROCKY MOUNT    MOCLDY    26  10  50 NE7       30.29F
WASHINGTON     CLOUDY    27  15  62 NE6       30.31R
WHITEVILLE     CLOUDY    33  17  51 NE7       30.23S

$$

AMZ130-135-150-152-154-156-158-170-250-252-270-ANZ085-086-088-633-658-670-121200-
MARINE OBSERVATIONS

STATION/POSITION TIME  TEMP    WIND        PRES    WAVE   SWELL
                       AIR SEA DIR/SP/G            HT/PER HT/PER
                 (UTC) (F)     (DEG/KT/KT) (MB)    (FT/S) (FT/S)
CHESAPEAKE LIGHT 1100   26     350/  9/ 10 1027.9
64 E VA BEACH    1050   30 49  350/  8/ 14 1026.8    4/ 7   3/ 7
DUCK             1100   31      20/ 14/ 17 1025.4
2 E DUCK         1111      43                N/A     3/ 5
OREGON INLET     1100   33 40   10/  9/ 12 1025.5
13E OREGON INLT  1100      45                N/A     3/ 7
HATTERAS CG      1100   35 45   30/  9/ 13 1025.1
DIAMOND BUOY     1050   40 61   10/ 12/ 17 1025.4    3/ 8   2/ 8
CAPE LOOKOUT     NOT AVBL
BEAUFORT LAB     1100   33 44   30/  7/  9 1024.2
30 SE NEW RVR IN 1108   46 58              1023.3
30 SE NEW RVR IN 1025      58                N/A     3/ 7
27 SE WRIGHTSVLE 1108   49 62   80/ 14/ 21 1021.0
5 SE WRIGHTSVLE  1008   44 50   70/ 17/ 23 1023.7
225 S CAPE HAT   1050   56 68  110/  6/  8   N/A     5/ 8   5/ 8
41 SE CHARLESTON 1050   59 69  240/ 16/ 17 1020.6    3/ 6   2/ 6

$$




USA.gov is the U.S. government's official web portal to all federal, state and local government web resources and services.